Location: Hopewell Observatory
(38.8698°N, 77.6988°W)
Time: 16:14:40
(UTC-05:00)

Amateur Radio Satellites - All Passes

Search period start: 09 December 2016 15:44
Search period end: 10 December 2016 15:44
Location: Hopewell Observatory, 38.8698°N, 77.6988°W

Satellite Date Start Highest point End Downlink Frequencies (MHz)
Time Altitude Azimuth
ISS 09 Dec 15:45:01 15:48:01 32° 329° (NNW) 15:51:03 145.825
GOMX 1 09 Dec 16:01:06 16:03:50 15° 63° (ENE) 16:06:42 467.674
CUTE-I 09 Dec 16:06:19 16:07:53 11° 59° (ENE) 16:09:27 437.470
NOAA 15 09 Dec 16:14:52 16:17:45 15° 61° (ENE) 16:20:38 137.62
Cosmos 2491 09 Dec 16:20:26 16:26:46 22° 66° (ENE) 16:33:03 435.465 / 435.565
Cubesat XI-IV 09 Dec 16:31:03 16:34:47 20° 64° (ENE) 16:38:33 437.490
SWISSCUBE 09 Dec 16:33:10 16:33:48 10° 300° (WNW) 16:34:27 437.505
BEESAT 09 Dec 16:36:28 16:37:27 11° 299° (WNW) 16:38:24 436.000
BRITE-PL 09 Dec 16:43:18 16:47:38 84° 258° (WSW) 16:52:21 437.365/2234.400
AUBIESAT-1 09 Dec 16:43:45 16:45:18 12° 304° (WNW) 16:46:49 437.475
NOAA 18 09 Dec 16:46:07 16:49:50 19° 62° (ENE) 16:53:32 137.9125
AIST 2 09 Dec 16:49:22 16:53:19 39° 245° (WSW) 16:57:16 435.215
YUBILEINY 09 Dec 16:50:39 16:52:43 11° 74° (ENE) 16:54:48 435.215
STARS 09 Dec 17:01:13 17:05:40 85° 106° (ESE) 17:10:02 437.465
MOZHAYETS 4 09 Dec 17:05:54 17:08:53 18° 294° (WNW) 17:11:52
KKS-1 09 Dec 17:06:30 17:10:40 38° 289° (WNW) 17:14:48 437.445
HORYU 2 09 Dec 17:17:04 17:21:19 42° 261° (W) 17:25:35 437.375
CUBESAT XI-V 09 Dec 17:17:44 17:22:26 86° 284° (WNW) 17:27:08 437.345
ISS 09 Dec 17:24:22 17:25:19 11° 348° (NNW) 17:26:17 145.825
DOVE 4 09 Dec 17:26:55 17:31:35 48° 72° (ENE) 17:36:31 437.250
RS-15 09 Dec 17:27:22 17:38:44 46° 252° (WSW) 17:49:43 29.354- 29.394
HO-68 09 Dec 17:35:31 17:40:32 21° 58° (ENE) 17:45:34 435.675
GOMX 1 09 Dec 17:36:46 17:41:19 57° 261° (W) 17:46:14 467.674
LilacSat-2 09 Dec 17:39:18 17:43:09 88° 255° (WSW) 17:47:00 437.200
CUTE-I 09 Dec 17:41:43 17:47:05 87° 74° (ENE) 17:52:28 437.470
SO-50 09 Dec 17:50:19 17:52:33 13° 108° (ESE) 17:54:47 436.795
NOAA 15 09 Dec 17:51:43 17:56:55 68° 258° (WSW) 18:02:10 137.62
Cubesat XI-IV 09 Dec 18:09:11 18:14:25 53° 259° (W) 18:19:42 437.490
Cosmos 2491 09 Dec 18:15:49 18:24:32 77° 266° (W) 18:33:13 435.465 / 435.565
CINEMA 3 09 Dec 18:16:31 18:21:08 39° 71° (ENE) 18:25:47 145.822/145.860
AIST 1 09 Dec 18:21:40 18:24:09 15° 86° (E) 18:26:39
NOAA 18 09 Dec 18:24:29 18:29:57 61° 258° (WSW) 18:35:28 137.9125
YUBILEINY 09 Dec 18:39:09 18:47:45 70° 93° (E) 18:56:27 435.215
UWE-3 09 Dec 18:44:41 18:46:32 12° 64° (ENE) 18:48:24 435.000/436.395/437.385
CUSAT 1 09 Dec 18:48:04 18:50:23 14° 76° (ENE) 18:52:59 437.405
CUTE 1.7 + AOD 2 09 Dec 18:52:03 18:56:08 51° 74° (ENE) 19:00:13 437.475
AAUSAT CUBESAT 2 09 Dec 18:57:18 19:00:15 20° 68° (ENE) 19:03:13 437.432
PCSat 09 Dec 18:58:53 19:03:26 26° 51° (NE) 19:07:57 145.827
ISS 09 Dec 19:02:38 19:03:04 10° 9° (N) 19:03:31 145.825
DOVE 4 09 Dec 19:06:13 19:09:32 18° 269° (W) 19:13:00 437.250
Cosmos 2504 09 Dec 19:10:23 19:18:30 56° 90° (E) 19:27:03 435.465 / 435.565
CANX-2 09 Dec 19:10:48 19:15:01 80° 260° (W) 19:19:14 2200.000
ZACube-1 09 Dec 19:15:38 19:18:20 16° 66° (ENE) 19:21:01 437.345
STRAND 1 09 Dec 19:16:39 19:21:38 52° 100° (E) 19:26:35 437.568
HO-68 09 Dec 19:20:20 19:27:29 76° 256° (WSW) 19:34:42 435.675
FUNcube-1 09 Dec 19:20:50 19:23:39 16° 66° (ENE) 19:26:25 145.935
CUTE-I 09 Dec 19:26:59 19:27:45 10° 271° (W) 19:28:32 437.470
SEEDS 09 Dec 19:27:43 19:31:52 89° 236° (WSW) 19:36:03 437.485
SO-50 09 Dec 19:27:44 19:32:29 67° 303° (WNW) 19:37:11 436.795
COMPASS 1 09 Dec 19:30:24 19:34:27 63° 75° (ENE) 19:38:33 437.405
CUBEBUG 2 09 Dec 19:43:49 19:48:34 82° 75° (ENE) 19:53:17 437.445
Oscar 11 09 Dec 19:45:12 19:48:50 27° 70° (ENE) 19:52:28 145.826/435.025
CINEMA 3 09 Dec 19:54:30 19:58:20 22° 267° (W) 20:02:14 145.822/145.860
AIST 1 09 Dec 19:57:17 20:01:20 39° 282° (WNW) 20:05:27
DANDE 09 Dec 20:13:24 20:15:52 21° 79° (E) 20:18:48 436.750
Cosmos 2491 09 Dec 20:16:22 20:19:47 13° 285° (WNW) 20:23:12 435.465 / 435.565
UWE-3 09 Dec 20:17:48 20:22:26 67° 259° (W) 20:27:00 435.000/436.395/437.385
CUSAT 1 09 Dec 20:28:08 20:32:09 48° 263° (W) 20:37:24 437.405
CUTE 1.7 + AOD 2 09 Dec 20:30:38 20:32:15 12° 269° (W) 20:33:52 437.475
AAUSAT CUBESAT 2 09 Dec 20:31:52 20:35:30 30° 263° (W) 20:39:09 437.432
ISS 09 Dec 20:37:35 20:40:28 27° 29° (NNE) 20:43:20 145.825
YUBILEINY 09 Dec 20:38:37 20:45:18 24° 293° (WNW) 20:52:06 435.215
PCSat 09 Dec 20:41:51 20:46:59 44° 248° (WSW) 20:52:05 145.827
ZACube-1 09 Dec 20:49:50 20:54:13 48° 261° (W) 20:58:34 437.345
DELFI C3 09 Dec 20:53:58 20:57:48 56° 75° (ENE) 21:01:39 145.870
FUNcube-1 09 Dec 20:55:10 20:59:30 45° 261° (W) 21:03:47 145.935
STRAND 1 09 Dec 20:56:58 21:00:23 18° 296° (WNW) 21:03:47 437.568
Cosmos 2504 09 Dec 21:04:57 21:12:16 32° 290° (WNW) 21:19:56 435.465 / 435.565
SO-50 09 Dec 21:12:43 21:13:49 11° 322° (NW) 21:14:55 436.795
HO-68 09 Dec 21:14:31 21:16:15 11° 272° (W) 21:18:00 435.675
Oscar 11 09 Dec 21:21:25 21:24:55 24° 265° (W) 21:28:25 145.826/435.025
PRISM 09 Dec 21:31:44 21:35:56 84° 284° (WNW) 21:40:06 437.425
HUMSAT D 09 Dec 21:41:06 21:45:18 77° 258° (WSW) 21:49:28 437.325/437.525
UNISAT 6 09 Dec 21:44:43 21:48:26 27° 96° (E) 21:52:06 437.425
DANDE 09 Dec 21:56:28 21:58:26 15° 264° (W) 22:00:39 436.750
TIGRISAT 09 Dec 22:12:59 22:17:15 54° 100° (E) 22:21:25 435.000
ISS 09 Dec 22:13:57 22:16:59 34° 225° (SW) 22:20:02 145.825
PHONESAT 2.4 09 Dec 22:13:59 22:16:16 25° 154° (SSE) 22:18:33 2401.200-2431.200
ANTELSAT 09 Dec 22:15:32 22:19:51 62° 100° (E) 22:24:04 437.575/2403.000
AISAT 09 Dec 22:16:54 22:19:32 16° 65° (ENE) 22:22:11 437.250
ESTCUBE 1 09 Dec 22:26:22 22:30:37 45° 72° (ENE) 22:34:53 437.505/2401.250
CUBEBUG 1 09 Dec 22:30:22 22:34:09 29° 70° (ENE) 22:37:58 437.445
VELOX 1 09 Dec 22:51:55 22:55:54 34° 70° (ENE) 22:59:55 145.980
UKube-1 09 Dec 22:51:56 22:54:05 14° 64° (ENE) 22:56:14 .
DX 1 09 Dec 22:52:12 22:55:15 19° 66° (ENE) 22:58:17 434.975-435.025
SPROUT 09 Dec 22:54:11 22:57:36 23° 68° (ENE) 23:01:02 437.525
NANOSAT C BR1 09 Dec 23:04:01 23:07:06 20° 94° (E) 23:10:10 145.865
QB50P2 09 Dec 23:13:34 23:17:17 29° 96° (E) 23:20:58 145.880/145.840
POLYITAN 1 09 Dec 23:14:02 23:17:41 28° 96° (E) 23:21:17 437.675
GONETS M04 09 Dec 23:19:07 23:26:17 30° 84° (E) 23:33:26
UNISAT 6 09 Dec 23:21:32 23:25:01 24° 292° (WNW) 23:28:27 437.425
DUCHIFAT 1 09 Dec 23:23:29 23:27:11 30° 97° (E) 23:30:53 145.980
QB50P1 09 Dec 23:25:26 23:29:23 37° 98° (E) 23:33:17 145.935-145.965
JAS-2 09 Dec 23:27:10 23:32:22 62° 102° (ESE) 23:37:58 435.910
AO-85 09 Dec 23:34:25 23:35:54 11° 108° (ESE) 23:37:21 145.980
POPSAT HIP 1 09 Dec 23:47:12 23:51:26 68° 102° (ESE) 23:55:36 437.405
PHONESAT 2.4 09 Dec 23:48:38 23:51:17 76° 351° (N) 23:53:56 2401.200-2431.200
Cosmos 2499 09 Dec 23:49:56 23:58:13 54° 90° (E) 00:06:46 435.465 / 435.565
AISAT 09 Dec 23:51:20 23:55:35 47° 260° (W) 23:59:54 437.250
TIGRISAT 09 Dec 23:51:26 23:53:25 13° 296° (WNW) 23:55:24 435.000
50 SAT 09 Dec 23:53:54 23:57:16 46° 260° (W) 00:00:40 437.505
ANTELSAT 09 Dec 23:54:31 23:55:59 12° 297° (WNW) 23:57:25 437.575/2403.000
TISAT 1 10 Dec 00:01:06 00:04:16 21° 68° (ENE) 00:07:26 437.305
BUGSAT 1 10 Dec 00:02:59 00:06:42 31° 97° (E) 00:10:21 437.445
ESTCUBE 1 10 Dec 00:04:58 00:07:38 15° 268° (W) 00:10:18 437.505/2401.250
CUBEBUG 1 10 Dec 00:06:57 00:10:25 23° 265° (W) 00:13:54 437.445
O/OREOS (USA 219) 10 Dec 00:14:12 00:17:36 21° 59° (ENE) 00:20:59 437.305
UKube-1 10 Dec 00:25:26 00:29:38 52° 259° (W) 00:33:53 .
DX 1 10 Dec 00:27:06 00:31:07 37° 261° (W) 00:35:12 434.975-435.025
VELOX 1 10 Dec 00:29:11 00:32:25 20° 266° (W) 00:35:42 145.980
SPROUT 10 Dec 00:29:40 00:33:22 28° 264° (W) 00:37:07 437.525
M-CUBED/EXP-1 PRIME 10 Dec 00:34:53 00:37:14 14° 58° (ENE) 00:39:38 437.505
NANOSAT C BR1 10 Dec 00:39:07 00:42:52 31° 289° (WNW) 00:46:34 145.865
QB50P2 10 Dec 00:49:41 00:52:54 22° 292° (WNW) 00:56:07 145.880/145.840
POLYITAN 1 10 Dec 00:50:01 00:53:20 23° 292° (WNW) 00:56:36 437.675
ITUPSAT 1 10 Dec 00:55:24 00:58:31 18° 64° (ENE) 01:01:38 437.325
DUCHIFAT 1 10 Dec 00:59:31 01:02:41 21° 292° (WNW) 01:05:49 145.980
QB50P1 10 Dec 01:02:03 01:04:50 17° 294° (WNW) 01:07:37 145.935-145.965
AO-85 10 Dec 01:10:52 01:15:50 79° 303° (WNW) 01:20:26 145.980
JAS-2 10 Dec 01:14:00 01:17:02 16° 297° (WNW) 01:20:09 435.910
GONETS M04 10 Dec 01:14:03 01:22:33 56° 282° (WNW) 01:31:05
PHONESAT 2.4 10 Dec 01:23:57 01:26:34 61° 6° (N) 01:29:11 2401.200-2431.200
POPSAT HIP 1 10 Dec 01:25:58 01:26:36 10° 297° (WNW) 01:27:14 437.405
TISAT 1 10 Dec 01:35:54 01:39:41 31° 263° (W) 01:43:29 437.305
Oscar 19 10 Dec 01:36:28 01:41:40 72° 102° (ESE) 01:46:51 437.125/150
BUGSAT 1 10 Dec 01:38:48 01:41:50 20° 293° (WNW) 01:44:50 437.445
Cosmos 2499 10 Dec 01:44:02 01:51:38 33° 289° (WNW) 01:59:29 435.465 / 435.565
AUBIESAT-1 10 Dec 01:50:49 01:55:02 75° 70° (ENE) 01:59:31 437.475
O/OREOS (USA 219) 10 Dec 01:53:01 01:57:05 35° 255° (WSW) 02:01:09 437.305
SWISSCUBE 10 Dec 01:56:54 02:01:40 85° 76° (ENE) 02:06:27 437.505
BEESAT 10 Dec 02:00:28 02:05:14 82° 76° (ENE) 02:10:01 436.000
M-CUBED/EXP-1 PRIME 10 Dec 02:07:00 02:11:06 57° 255° (WSW) 02:15:32 437.505
Gurwin Techsat 1B 10 Dec 02:07:20 02:12:39 71° 102° (ESE) 02:17:56 435.225
ITAMSAT 1 10 Dec 02:15:42 02:19:07 18° 93° (E) 02:22:31 435.822/435.867
SO-50 10 Dec 02:22:22 02:23:38 11° 38° (NE) 02:24:54 436.795
MOZHAYETS 4 10 Dec 02:28:17 02:32:27 36° 71° (ENE) 02:36:38
KKS-1 10 Dec 02:28:21 02:30:58 16° 64° (ENE) 02:33:36 437.445
ITUPSAT 1 10 Dec 02:31:19 02:35:56 48° 260° (W) 02:40:35 437.325
AO-85 10 Dec 02:55:13 02:56:53 12° 318° (NW) 02:58:31 145.980
PHONESAT 2.4 10 Dec 02:59:10 03:01:42 42° 202° (SSW) 03:04:12 2401.200-2431.200
BEESAT 3 10 Dec 03:00:35 03:03:18 18° 111° (ESE) 03:06:01 437.485
Oscar 19 10 Dec 03:17:42 03:20:21 14° 299° (WNW) 03:23:00 437.125/150
AO-7 10 Dec 03:32:22 03:40:34 55° 103° (ESE) 03:48:42 29.400- 29.500
BEESAT 2 10 Dec 03:38:55 03:41:57 22° 112° (ESE) 03:45:01 435.950
Gurwin Techsat 1B 10 Dec 03:49:06 03:51:58 15° 299° (WNW) 03:54:49 435.225
ITAMSAT 1 10 Dec 03:53:51 03:58:52 52° 288° (WNW) 04:03:51 435.822/435.867
STARS 10 Dec 03:56:09 04:00:31 63° 74° (ENE) 04:04:55 437.465
SO-50 10 Dec 04:00:22 04:04:54 76° 57° (ENE) 04:09:21 436.795
KKS-1 10 Dec 04:02:46 04:07:06 49° 260° (W) 04:11:28 437.445
MOZHAYETS 4 10 Dec 04:06:19 04:09:42 20° 266° (W) 04:13:05
CUBESAT XI-V 10 Dec 04:19:29 04:24:03 79° 76° (ENE) 04:28:40 437.345
BEESAT 3 10 Dec 04:37:05 04:40:39 34° 307° (NW) 04:44:16 437.485
BRITE-PL 10 Dec 04:48:24 04:53:37 39° 97° (E) 04:58:55 437.365/2234.400
YUBILEINY 10 Dec 04:51:17 04:59:02 33° 71° (ENE) 05:06:42 435.215
Cosmos 2504 10 Dec 05:06:15 05:12:05 19° 63° (ENE) 05:17:40 435.465 / 435.565
HORYU 2 10 Dec 05:09:03 05:13:10 37° 98° (E) 05:17:15 437.375
BEESAT 2 10 Dec 05:16:05 05:19:35 30° 308° (NW) 05:23:07 435.950
LilacSat-2 10 Dec 05:16:36 05:17:09 10° 91° (E) 05:17:42 437.200
Cosmos 2491 10 Dec 05:20:49 05:27:33 26° 82° (E) 05:34:14 435.465 / 435.565
AO-7 10 Dec 05:25:41 05:32:56 34° 300° (WNW) 05:40:11 29.400- 29.500
DOVE 4 10 Dec 05:28:27 05:31:38 16° 90° (E) 05:34:43 437.250
STARS 10 Dec 05:36:06 05:37:15 11° 269° (W) 05:38:25 437.465
RS-15 10 Dec 05:36:39 05:46:49 37° 105° (ESE) 05:57:23 29.354- 29.394
GOMX 1 10 Dec 05:39:20 05:44:42 51° 99° (E) 05:49:57 467.674
CUTE-I 10 Dec 06:00:19 06:05:15 38° 98° (E) 06:10:09 437.470
AIST 1 10 Dec 06:05:15 06:09:26 41° 78° (ENE) 06:13:35
NOAA 15 10 Dec 06:08:04 06:13:12 50° 100° (E) 06:18:19 137.62
BRITE-PL 10 Dec 06:27:11 06:31:51 28° 292° (WNW) 06:36:37 437.365/2234.400
Cubesat XI-IV 10 Dec 06:27:32 06:32:52 69° 102° (ESE) 06:38:09 437.490
STRAND 1 10 Dec 06:31:07 06:36:12 66° 74° (ENE) 06:41:17 437.568
AIST 2 10 Dec 06:45:06 06:49:05 56° 117° (ESE) 06:53:09 435.215
HORYU 2 10 Dec 06:46:19 06:49:25 19° 294° (WNW) 06:52:32 437.375
YUBILEINY 10 Dec 06:47:38 06:56:07 53° 270° (W) 07:04:35 435.215
NOAA 18 10 Dec 06:47:45 06:53:16 64° 102° (ESE) 06:58:43 137.9125
LilacSat-2 10 Dec 06:48:04 06:51:41 46° 286° (WNW) 06:55:17 437.200
HO-68 10 Dec 06:50:30 06:55:57 23° 93° (E) 07:01:20 435.675
CANX-2 10 Dec 06:57:49 07:00:50 19° 94° (E) 07:03:50 2200.000
Cosmos 2504 10 Dec 06:57:55 07:06:41 86° 265° (W) 07:14:49 435.465 / 435.565
DOVE 4 10 Dec 07:04:31 07:09:41 57° 287° (WNW) 07:14:37 437.250
SEEDS 10 Dec 07:13:50 07:16:28 16° 93° (E) 07:19:07 437.485
Cosmos 2491 10 Dec 07:14:56 07:23:37 65° 281° (W) 07:32:19 435.465 / 435.565
COMPASS 1 10 Dec 07:16:44 07:17:51 11° 91° (E) 07:18:56 437.405
GOMX 1 10 Dec 07:18:16 07:22:20 21° 295° (WNW) 07:26:21 467.674
CUBEBUG 2 10 Dec 07:37:20 07:40:14 17° 92° (E) 07:43:03 437.445
CUTE-I 10 Dec 07:40:45 07:45:05 26° 294° (WNW) 07:49:24 437.470
AIST 1 10 Dec 07:44:05 07:46:38 15° 274° (W) 07:49:09
RS-15 10 Dec 07:46:50 07:58:32 65° 307° (NW) 08:10:49 29.354- 29.394
NOAA 15 10 Dec 07:48:47 07:52:35 20° 296° (WNW) 07:56:22 137.62
CINEMA 3 10 Dec 07:49:30 07:54:14 75° 283° (WNW) 07:58:41 145.822/145.860
Cubesat XI-IV 10 Dec 08:09:19 08:12:19 15° 299° (WNW) 08:15:19 437.490
UWE-3 10 Dec 08:09:25 08:12:56 25° 95° (E) 08:16:22 435.000/436.395/437.385
STRAND 1 10 Dec 08:13:21 08:15:47 13° 269° (W) 08:18:15 437.568
CUTE 1.7 + AOD 2 10 Dec 08:13:36 08:17:48 65° 284° (WNW) 08:21:58 437.475
AAUSAT CUBESAT 2 10 Dec 08:14:38 08:18:35 41° 99° (E) 08:22:31 437.432
PRISM 10 Dec 08:19:33 08:23:31 55° 74° (ENE) 08:27:32 437.425
AIST 2 10 Dec 08:25:23 08:27:54 16° 315° (NW) 08:30:27 435.215
NOAA 18 10 Dec 08:29:51 08:33:21 17° 299° (WNW) 08:36:50 137.9125
CANX-2 10 Dec 08:32:56 08:36:44 33° 289° (WNW) 08:40:32 2200.000
HO-68 10 Dec 08:36:59 08:44:06 64° 290° (WNW) 08:51:11 435.675
ZACube-1 10 Dec 08:39:38 08:43:25 33° 97° (E) 08:47:09 437.345
UNISAT 6 10 Dec 08:42:12 08:45:53 23° 68° (ENE) 08:49:31 437.425
FUNcube-1 10 Dec 08:44:32 08:48:21 34° 97° (E) 08:52:07 145.935
SEEDS 10 Dec 08:48:24 08:52:17 37° 288° (WNW) 08:56:10 437.485
COMPASS 1 10 Dec 08:49:37 08:53:42 55° 285° (WNW) 08:57:46 437.405
Cosmos 2504 10 Dec 08:54:07 08:58:34 15° 284° (WNW) 09:02:54 435.465 / 435.565
Oscar 11 10 Dec 09:08:43 09:13:01 66° 101° (ESE) 09:17:17 145.826/435.025
TIGRISAT 10 Dec 09:09:50 09:14:14 42° 72° (ENE) 09:18:36 435.000
ANTELSAT 10 Dec 09:12:28 09:16:57 48° 73° (ENE) 09:21:24 437.575/2403.000
CUBEBUG 2 10 Dec 09:13:02 09:16:59 35° 289° (WNW) 09:20:49 437.445
Cosmos 2491 10 Dec 09:19:56 09:22:22 11° 302° (WNW) 09:24:50 435.465 / 435.565
DANDE 10 Dec 09:20:54 09:24:48 34° 98° (E) 09:27:53 436.750
HUMSAT D 10 Dec 09:26:36 09:29:21 17° 94° (E) 09:32:06 437.325/437.525
CUSAT 1 10 Dec 09:32:01 09:34:24 23° 282° (WNW) 09:36:36 437.405
GONETS M04 10 Dec 09:32:07 09:35:38 13° 59° (ENE) 09:39:09
JAS-2 10 Dec 09:39:13 09:43:58 24° 67° (ENE) 09:48:22 435.910
PCSat 10 Dec 09:39:30 09:44:02 28° 108° (ESE) 09:48:37 145.827
AO-85 10 Dec 09:43:56 09:47:50 55° 56° (NE) 09:51:38 145.980
Cosmos 2499 10 Dec 09:45:00 09:50:10 17° 62° (ENE) 09:55:06 435.465 / 435.565
UWE-3 10 Dec 09:45:51 09:49:17 24° 291° (WNW) 09:52:39 435.000/436.395/437.385
AAUSAT CUBESAT 2 10 Dec 09:51:14 09:53:42 15° 293° (WNW) 09:56:09 437.432
NANOSAT C BR1 10 Dec 09:55:55 09:58:02 14° 65° (ENE) 10:00:09 145.865
PRISM 10 Dec 09:58:28 09:59:08 10° 269° (W) 09:59:48 437.425
RS-15 10 Dec 10:04:43 10:14:08 25° 336° (NNW) 10:23:46 29.354- 29.394
QB50P2 10 Dec 10:05:21 10:08:28 20° 67° (ENE) 10:11:36 145.880/145.840
POLYITAN 1 10 Dec 10:05:50 10:08:53 19° 67° (ENE) 10:11:55 437.675
DELFI C3 10 Dec 10:06:52 10:10:52 72° 284° (WNW) 10:14:50 145.870
DUCHIFAT 1 10 Dec 10:14:28 10:17:34 20° 67° (ENE) 10:20:41 145.980
ZACube-1 10 Dec 10:16:32 10:19:27 19° 293° (WNW) 10:22:20 437.345
QB50P1 10 Dec 10:16:46 10:20:15 25° 69° (ENE) 10:23:44 145.935-145.965
UNISAT 6 10 Dec 10:18:11 10:22:23 33° 263° (W) 10:26:35 437.425
FUNcube-1 10 Dec 10:21:30 10:24:19 18° 293° (WNW) 10:27:07 145.935
ESTCUBE 1 10 Dec 10:23:01 10:23:37 10° 90° (E) 10:24:14 437.505/2401.250
HO-68 10 Dec 10:28:07 10:30:26 12° 309° (NW) 10:32:46 435.675
POPSAT HIP 1 10 Dec 10:38:08 10:42:10 42° 72° (ENE) 10:46:13 437.405
Oscar 11 10 Dec 10:47:27 10:48:33 11° 297° (WNW) 10:49:41 145.826/435.025
TIGRISAT 10 Dec 10:47:52 10:51:03 18° 267° (W) 10:54:14 435.000
ANTELSAT 10 Dec 10:51:01 10:53:52 16° 268° (W) 10:56:42 437.575/2403.000
BUGSAT 1 10 Dec 10:51:47 10:54:52 20° 67° (ENE) 10:57:57 437.445
HUMSAT D 10 Dec 11:01:23 11:05:02 32° 289° (WNW) 11:08:40 437.325/437.525
DANDE 10 Dec 11:06:34 11:07:20 10° 284° (WNW) 11:08:04 436.750
Oscar 19 10 Dec 11:17:14 11:18:36 11° 59° (ENE) 11:19:58 437.125/150
BEESAT 3 10 Dec 11:20:05 11:20:24 10° 41° (NE) 11:20:41 437.485
PCSat 10 Dec 11:22:13 11:27:15 38° 305° (NW) 11:32:18 145.827
JUGNU 10 Dec 11:22:23 11:24:18 11° 182° (S) 11:26:12 437.505
50 SAT 10 Dec 11:22:29 11:24:08 13° 93° (E) 11:25:45 437.505
JAS-2 10 Dec 11:22:44 11:28:50 47° 260° (W) 11:34:18 435.910
GONETS M04 10 Dec 11:25:28 11:34:11 71° 81° (E) 11:42:55
AO-85 10 Dec 11:27:14 11:27:40 10° 252° (WSW) 11:28:05 145.980
NANOSAT C BR1 10 Dec 11:29:09 11:33:17 51° 260° (W) 11:37:28 145.865
Cosmos 2499 10 Dec 11:36:06 11:44:38 90° 83° (E) 11:52:26 435.465 / 435.565
QB50P2 10 Dec 11:40:09 11:44:01 33° 263° (W) 11:47:55 145.880/145.840
POLYITAN 1 10 Dec 11:40:29 11:44:24 35° 262° (W) 11:48:21 437.675
AISAT 10 Dec 11:42:37 11:46:42 34° 98° (E) 11:50:45 437.250
DUCHIFAT 1 10 Dec 11:49:10 11:53:01 33° 263° (W) 11:56:52 145.980
Gurwin Techsat 1B 10 Dec 11:51:02 11:53:14 13° 60° (ENE) 11:55:26 435.225
QB50P1 10 Dec 11:52:18 11:55:54 26° 264° (W) 11:59:31 145.935-145.965
CUBEBUG 1 10 Dec 11:55:29 11:59:56 71° 102° (ESE) 12:04:21 437.445
ESTCUBE 1 10 Dec 11:56:21 12:00:51 68° 285° (WNW) 12:05:20 437.505/2401.250
BEESAT 2 10 Dec 11:58:30 12:00:05 12° 43° (NE) 12:01:38 435.950
UKube-1 10 Dec 12:13:57 12:17:38 26° 97° (E) 12:21:17 .
POPSAT HIP 1 10 Dec 12:15:33 12:18:07 15° 267° (W) 12:20:40 437.405
SPROUT 10 Dec 12:15:58 12:20:09 51° 100° (E) 12:24:18 437.525
DX 1 10 Dec 12:16:10 12:20:17 38° 99° (E) 12:24:23 434.975-435.025
VELOX 1 10 Dec 12:18:53 12:23:22 84° 101° (E) 12:27:50 145.980
RS-15 10 Dec 12:24:23 12:32:58 21° 12° (NNE) 12:41:31 29.354- 29.394
BUGSAT 1 10 Dec 12:26:09 12:29:59 33° 263° (W) 12:33:51 437.445
AO-7 10 Dec 12:42:44 12:46:40 14° 48° (NE) 12:50:37 29.400- 29.500
Oscar 19 10 Dec 12:51:59 12:57:07 90° 246° (WSW) 13:02:18 437.125/150
50 SAT 10 Dec 12:54:16 12:57:31 34° 287° (WNW) 13:00:46 437.505
BEESAT 3 10 Dec 12:54:38 12:58:38 87° 60° (ENE) 13:02:37 437.485
SRMSAT 10 Dec 13:10:38 13:12:25 11° 178° (S) 13:14:12 437.500
ISS 10 Dec 13:18:11 13:19:50 13° 129° (SE) 13:21:29 145.825
AISAT 10 Dec 13:19:34 13:22:55 21° 293° (WNW) 13:26:16 437.250
TISAT 1 10 Dec 13:20:30 13:24:29 40° 99° (E) 13:28:26 437.305
GONETS M04 10 Dec 13:23:48 13:30:06 23° 279° (W) 13:36:26
Gurwin Techsat 1B 10 Dec 13:27:06 13:32:25 83° 257° (WSW) 13:37:47 435.225
Cosmos 2499 10 Dec 13:31:51 13:36:20 16° 284° (WNW) 13:40:40 435.465 / 435.565
ITAMSAT 1 10 Dec 13:32:12 13:36:24 25° 66° (ENE) 13:40:36 435.822/435.867
BEESAT 2 10 Dec 13:34:20 13:38:22 77° 242° (WSW) 13:42:22 435.950
CUBEBUG 1 10 Dec 13:34:26 13:35:35 11° 298° (WNW) 13:36:43 437.445
M-CUBED/EXP-1 PRIME 10 Dec 13:49:23 13:51:09 12° 94° (E) 13:52:52 437.505
UKube-1 10 Dec 13:50:00 13:53:33 25° 292° (WNW) 13:57:06 .
DX 1 10 Dec 13:53:09 13:56:10 18° 294° (WNW) 13:59:10 434.975-435.025
SPROUT 10 Dec 13:53:29 13:55:37 14° 295° (WNW) 13:57:45 437.525
SWISSCUBE 10 Dec 13:58:56 14:02:43 23° 95° (E) 14:06:28 437.505
BEESAT 10 Dec 14:02:29 14:06:12 22° 95° (E) 14:09:55 436.000
O/OREOS (USA 219) 10 Dec 14:24:55 14:28:50 29° 103° (ESE) 14:32:45 437.305
AO-7 10 Dec 14:29:41 14:37:51 66° 68° (ENE) 14:46:05 29.400- 29.500
ITUPSAT 1 10 Dec 14:32:51 14:37:26 46° 100° (E) 14:41:59 437.325
RS-15 10 Dec 14:38:15 14:50:00 45° 44° (NE) 15:01:23 29.354- 29.394
ISS 10 Dec 14:52:43 14:55:57 58° 324° (NW) 14:59:13 145.825
TISAT 1 10 Dec 14:57:09 14:59:46 16° 294° (WNW) 15:02:21 437.305
AUBIESAT-1 10 Dec 15:04:51 15:09:23 69° 106° (ESE) 15:13:37 437.475
AIST 2 10 Dec 15:07:43 15:11:20 26° 50° (NE) 15:14:55 435.215
ITAMSAT 1 10 Dec 15:10:49 15:15:39 38° 262° (W) 15:20:29 435.822/435.867
M-CUBED/EXP-1 PRIME 10 Dec 15:21:27 15:26:02 63° 291° (WNW) 15:30:21 437.505
Cosmos 2491 10 Dec 15:35:18 15:36:31 10° 57° (ENE) 15:37:44 435.465 / 435.565
